Tobias Bolanos Internatio, Costa Rica

4:23 PM CST on September 24, 2017 (GMT -0600)
Tobias Bolanos International

Weather History for MRPV - November, 2013

Change the Weather History Date:

Wednesday, November 6, 2013

  Actual Average Record
Temperature  
Mean Temperature 71 °F -  
Max Temperature 79 °F 76 °F 82 °F (2003)
Min Temperature 63 °F 66 °F 62 °F (2008)
Cooling Degree Days 6    
Growing Degree Days 21 (Base 50)    
Moisture  
Dew Point 65 °F    
Average Humidity 72    
Maximum Humidity 88    
Minimum Humidity 47    
Precipitation  
Precipitation 0.00 in - - ()
Sea Level Pressure  
Sea Level Pressure 29.94 in    
Wind  
Wind Speed 6 mph ()    
Max Wind Speed 14 mph    
Max Gust Speed -    
Visibility 5.6 miles    
Events      
Averages and records for this station are not official NWS values.
T = Trace of Precipitation, MM = Missing Value Source: Averaged Metar Reports

Daily Weather History Graph

Daily Weather History Graph

Search for Another Location

Airport or City:

Trip Planner

Search our weather history database for the weather conditions in past years. The results will help you decide how hot, cold, wet, or windy it might be!

Date:

Astronomy

Nov. 06, 2013 Rise Set
Actual Time 5:28 AM CST 5:11 PM CST
Civil Twilight 5:06 AM CST 5:33 PM CST
Nautical Twilight 4:41 AM CST 5:59 PM CST
Astronomical Twilight 4:16 AM CST 6:24 PM CST
Moon 8:28 AM CST (11/6) 8:27 PM CST (11/6)
Length of Visible Light 12h 27m
Length of Day
11h 43m
Waxing Crescent, 14% of the Moon is Illuminated
Nov 6
Waxing Crescent
Nov 9
First Quarter
Nov 17
Full
Nov 25
Last Quarter
Dec 2
New

Hourly Weather History & Observations

Time (CST) Temp. Dew Point Humidity Pressure Visibility Wind Dir Wind Speed Gust Speed Precip Events Conditions
6:00 AM 64 °F 60 °F 84% 29.84 in 6 mi East 3.5 mph - -   Clear
6:00 AM 64.4 °F 60.8 °F 88% 30.01 in - East 3.5 mph - N/A   Clear
7:00 AM 69.8 °F 60.8 °F 73% 30.01 in - ENE 6.9 mph - N/A   Clear
8:00 AM 75.2 °F 60.8 °F 61% 30.02 in - SE 6.9 mph - N/A   Clear
9:00 AM 78 °F 62 °F 47% 29.81 in 6 mi East 6.9 mph - -   Scattered Clouds
9:00 AM 77.0 °F 60.8 °F 57% 30.01 in 6.2 mi East 6.9 mph - N/A   Mostly Cloudy
9:35 AM 78.8 °F 62.6 °F 57% 30.01 in 6.2 mi WNW 8.1 mph - N/A   Mostly Cloudy
10:00 AM 77.0 °F 66.2 °F 69% 30.01 in 6.2 mi West 10.4 mph - N/A   Mostly Cloudy
11:00 AM 77.0 °F 68.0 °F 74% 30.00 in 6.2 mi West 13.8 mph - N/A   Scattered Clouds
12:00 PM 77 °F 66 °F 60% 29.80 in 6 mi West 12.7 mph - -   Haze
12:00 PM 77.0 °F 66.2 °F 69% 29.99 in 6.2 mi West 12.7 mph - N/A   Scattered Clouds
1:00 PM 77.0 °F 66.2 °F 69% 29.96 in 6.2 mi West 10.4 mph - N/A   Scattered Clouds
2:00 PM 77.0 °F 66.2 °F 69% 29.95 in 6.2 mi West 10.4 mph - N/A   Scattered Clouds
3:00 PM 76 °F 68 °F 69% 29.76 in 5 mi West 9.2 mph - -   Haze
3:00 PM 75.2 °F 68.0 °F 78% 29.94 in 5.0 mi West 9.2 mph - N/A   Partly Cloudy
4:00 PM 73.4 °F 66.2 °F 78% 29.96 in 5.0 mi West 8.1 mph - N/A   Mostly Cloudy
5:00 PM 71.6 °F 66.2 °F 83% 29.97 in 5.0 mi NW 5.8 mph - N/A   Mostly Cloudy
6:00 PM 71 °F 68 °F 87% 29.83 in 4 mi West 5.8 mph - -   Haze
6:00 PM 71.6 °F 68.0 °F 88% 29.99 in 3.7 mi West 5.8 mph - N/A   Mostly Cloudy